[[{"header":{"parameterUnit":"m.s-1","parameterCategory":1,"la1":30.2991,"la2":30.254,"lo1":-89.0895,"lo2":-89.0444,"dy":0.0017,"dx":0.0017,"nx":28,"ny":28,"refTime":"2023-03-22T21:00:00:Z","depth":0,"parameterNumber":2,"parameterNumberName":"U-component_of_WINDS"},"data":[0,0,0,0,0,0,0,0,0,0,0,0,0,0,0,0,0,0,0,0,0,0,0,0,0,0,0,0,0,0,0,0,0,0,0,0,0,0,0,0,0,0,0,0,0,0,0,0,0,0,0,0,0,0,0,0,0,0,-2.6062,-2.6062,0,-2.6063,-2.6063,-2.6063,-2.6031,-2.603,-2.6029,-2.6028,-2.6031,-2.6032,-2.6032,0,0,0,0,0,0,0,0,0,0,0,0,0,-2.6032,-2.6033,-2.6062,-2.6062,-2.6062,-2.6063,-2.6063,-2.6063,-2.6031,-2.603,-2.6029,-2.6028,-2.603,-2.6032,-2.6033,0,0,0,0,0,0,0,0,0,0,0,0,0,-2.6041,-2.6033,-2.6062,-2.6046,-2.6045,-2.6063,-2.6063,-2.6064,-2.6031,-2.603,-2.6029,-2.6028,-2.603,-2.6031,-2.6033,-2.6067,0,0,-2.6037,-2.6037,0,0,0,0,0,0,0,0,-2.604,-2.6042,-2.6048,-2.6047,-2.6046,-2.6046,-2.6054,-2.6065,-2.6032,-2.6037,-2.6028,-2.6027,-2.6037,-2.6038,-2.6041,-2.6067,-2.6067,-2.6037,-2.6038,-2.6038,-2.6039,0,0,0,0,0,0,0,-2.604,-2.6041,-2.6063,-2.6049,-2.6047,-2.6039,-2.6039,-2.6056,-2.6044,-2.6036,-2.6034,-2.6034,-2.6036,-2.604,-2.6041,-2.6067,-2.6037,-2.6038,-2.6039,-2.6039,-2.6121,-2.6122,0,0,0,0,0,0,-2.6041,-2.6041,-2.6063,-2.6063,-2.604,-2.6041,-2.604,-2.6047,-2.6044,-2.6042,-2.6035,-2.6033,-2.6038,-2.6039,-2.604,-2.6079,-2.6038,-2.6039,-2.604,-2.6119,-2.6121,-2.6123,0,0,0,0,0,0,-2.604,-2.6043,-2.6063,-2.6051,-2.6053,-2.6043,-2.605,-2.6048,-2.6051,-2.6043,-2.6041,-2.6041,-2.6037,-2.6039,-2.606,-2.6079,-2.604,-2.6041,-2.6118,-2.612,-2.6122,-2.6157,0,0,0,0,0,0,-2.604,-2.6043,-2.6056,-2.6052,-2.6054,-2.6082,-2.6052,-2.6049,-2.6054,-2.605,-2.6048,-2.6046,-2.6036,-2.6059,-2.6062,-2.608,-2.6042,-2.6116,-2.6119,-2.6121,-2.6154,-2.616,-2.6165,0,0,0,0,0,-2.6039,-2.6067,-2.6057,-2.606,-2.607,-2.6083,-2.6085,-2.6072,-2.6055,-2.6068,-2.6063,-2.6047,-2.6077,-2.6061,-2.6064,-2.6083,-2.6115,-2.6118,-2.6121,-2.6152,-2.6159,-2.6165,0,0,0,0,0,0,-2.6074,-2.6066,-2.6055,-2.6082,-2.6084,-2.6078,-2.6093,-2.608,-2.6086,-2.6083,-2.6067,-2.6067,-2.6091,-2.609,-2.6072,-2.6116,-2.6093,-2.6097,-2.6115,-2.6122,-2.6127,-2.6126,-2.6043,0,0,0,0,0,-2.6084,-2.6096,-2.6089,-2.6113,-2.6115,-2.6104,-2.611,-2.61,-2.6101,-2.6101,-2.6098,-2.61,-2.6109,-2.6116,-2.6125,-2.6155,-2.6153,-2.6169,-2.6175,-2.6179,-2.6182,-2.6197,-2.6203,-2.6133,-2.6133,-2.6133,0,0,-2.6107,-2.6104,-2.6112,-2.612,-2.612,-2.6132,-2.6105,-2.6119,-2.6128,-2.6104,-2.6123,-2.6121,-2.6122,-2.6148,-2.6159,-2.6147,-2.6202,-2.6183,-2.6187,-2.6187,-2.6201,-2.6207,-2.6213,-2.6135,-2.6134,-2.6134,0,0,-2.6154,-2.6153,-2.6173,-2.6173,-2.6173,-2.6166,-2.6171,-2.6167,-2.6164,-2.6184,-2.6166,-2.6176,-2.6194,-2.6195,-2.6198,-2.6245,-2.623,-2.6248,-2.6276,-2.629,-2.6296,-2.6301,-2.6316,-2.6322,-2.6252,-2.6252,-2.6252,0,-2.6181,-2.6199,-2.6185,-2.62,-2.6203,-2.6182,-2.6201,-2.6203,-2.6206,-2.6209,-2.6196,-2.6217,-2.6216,-2.6241,-2.6252,-2.6256,-2.626,-2.6247,-2.6296,-2.6301,-2.6305,-2.632,-2.6325,-2.6254,-2.6254,-2.6253,-2.6253,0,-2.6232,-2.6244,-2.626,-2.6263,-2.6269,-2.6286,-2.6275,-2.6283,-2.6272,-2.6266,-2.6286,-2.6285,-2.6292,-2.6298,-2.6288,-2.6321,-2.6314,-2.6299,-2.6275,-2.6314,-2.6327,-2.6333,-2.6257,-2.6256,-2.6255,-2.6255,0,0,-2.63,-2.6294,-2.63,-2.6301,-2.6299,-2.6309,-2.6325,-2.6332,-2.6338,-2.6341,-2.6354,-2.6369,-2.6355,-2.6359,-2.6349,-2.6362,-2.6397,-2.6345,-2.6345,-2.6353,-2.6432,-2.6441,-2.6448,-2.6388,-2.6389,-2.639,-2.6431,0,-2.6344,-2.637,-2.6358,-2.6386,-2.6397,-2.6377,-2.6391,-2.6392,-2.6387,-2.6395,-2.639,-2.64,-2.6382,-2.6384,-2.6396,-2.639,-2.6412,-2.6388,-2.6399,-2.6399,-2.6397,-2.6455,-2.6466,-2.6504,-2.6436,-2.6437,-2.6438,0,-2.6398,-2.6402,-2.6431,-2.6427,-2.6431,-2.6444,-2.6448,-2.6457,-2.6457,-2.6453,-2.6457,-2.6444,-2.646,-2.6438,-2.6459,-2.6442,-2.6446,-2.6444,-2.6446,-2.6444,-2.642,-2.6454,-2.6516,-2.6522,-2.6446,-2.6445,-2.6445,0,-2.6442,-2.6456,-2.6474,-2.6476,-2.6472,-2.6481,-2.648,-2.6479,-2.6483,-2.6488,-2.649,-2.6497,-2.65,-2.6506,-2.6495,-2.648,-2.6517,-2.6494,-2.6513,-2.6513,-2.652,-2.6519,-2.6582,-2.6526,-2.6526,-2.6526,-2.6526,0,-2.6491,-2.6509,-2.6494,-2.6505,-2.6525,-2.6511,-2.6531,-2.6527,-2.6527,-2.6537,-2.6521,-2.6531,-2.6517,-2.6526,-2.6518,-2.6535,-2.6538,-2.6534,-2.6531,-2.6534,-2.6535,-2.6535,-2.6532,-2.6527,-2.6527,-2.6527,-2.6526,0,-2.6543,-2.6534,-2.6552,-2.6547,-2.6546,-2.656,-2.6555,-2.6566,-2.656,-2.6573,-2.6575,-2.6566,-2.6575,-2.6566,-2.6575,-2.657,-2.6593,-2.6587,-2.6592,-2.659,-2.6608,-2.6606,-2.6672,-2.6679,-2.662,-2.6621,-2.6622,0,-2.6574,-2.6587,-2.6583,-2.6588,-2.6588,-2.6597,-2.6601,-2.6588,-2.6593,-2.6594,-2.6604,-2.6612,-2.6617,-2.6633,-2.6628,-2.6634,-2.6628,-2.665,-2.6628,-2.6631,-2.6626,-2.6624,-2.6625,-2.6654,-2.6655,-2.6656,-2.6656,0,-2.663,-2.6624,-2.6631,-2.6635,-2.664,-2.6644,-2.6646,-2.6651,-2.6638,-2.6645,-2.6653,-2.6658,-2.6666,-2.6674,-2.6679,-2.6678,-2.6664,-2.6663,-2.6668,-2.667,-2.6671,-2.6669,-2.6602,-2.6661,-2.6661,-2.666,-2.666,-2.666,-2.6671,-2.6681,-2.6679,-2.6687,-2.6687,-2.6689,-2.6697,-2.6692,-2.6699,-2.6705,-2.6697,-2.6708,-2.6708,-2.6712,-2.6713,-2.6721,-2.6711,-2.6718,-2.6719,-2.6721,-2.6723,-2.6672,-2.6722,-2.6722,-2.6722,-2.6722,-2.6722,0,-2.6724,-2.6722,-2.6729,-2.6732,-2.6737,-2.6724,-2.6726,-2.6731,-2.6741,-2.6741,-2.6747,-2.6756,-2.6764,-2.6758,-2.6764,-2.6772,-2.6766,-2.6774,-2.6772,-2.6772,-2.6732,-2.6727,-2.6778,-2.6778,-2.6778,-2.6778,-2.6778,-2.6778,-2.6753,-2.6768,-2.6763,-2.6778,-2.6776,-2.6786,-2.6787,-2.6789,-2.6789,-2.68,-2.6806,-2.6802,-2.68,-2.6806,-2.6812,-2.681,-2.6812,-2.6822,-2.6818,-2.678,-2.6775,-2.6769,-2.6764,-2.6823,-2.6823,-2.6857,-2.6857,-2.6858]},{"header":{"parameterUnit":"m.s-1","parameterCategory":1,"la1":30.2991,"la2":30.254,"lo1":-89.0895,"lo2":-89.0444,"dy":0.0017,"dx":0.0017,"nx":28,"ny":28,"refTime":"2023-03-22T21:00:00:Z","depth":0,"parameterNumber":3,"parameterNumberName":"V-component_of_WINDS"},"data":[0,0,0,0,0,0,0,0,0,0,0,0,0,0,0,0,0,0,0,0,0,0,0,0,0,0,0,0,0,0,0,0,0,0,0,0,0,0,0,0,0,0,0,0,0,0,0,0,0,0,0,0,0,0,0,0,0,0,3.0891,3.0891,0,3.0886,3.0886,3.0886,3.0863,3.0862,3.0862,3.0861,3.0854,3.0855,3.0855,0,0,0,0,0,0,0,0,0,0,0,0,0,3.0881,3.0882,3.0891,3.0891,3.0891,3.0886,3.0886,3.0885,3.0863,3.0862,3.0862,3.0861,3.0854,3.0855,3.0855,0,0,0,0,0,0,0,0,0,0,0,0,0,3.0882,3.0882,3.0891,3.0879,3.0878,3.0886,3.0886,3.0885,3.0863,3.0862,3.0862,3.0861,3.0854,3.0855,3.0855,3.0873,0,0,3.0856,3.0857,0,0,0,0,0,0,0,0,3.0882,3.0882,3.0881,3.088,3.0879,3.0874,3.088,3.0881,3.0863,3.0869,3.0861,3.0861,3.0862,3.0861,3.0862,3.0873,3.0873,3.0857,3.0857,3.0857,3.0857,0,0,0,0,0,0,0,3.0882,3.0882,3.0889,3.0881,3.0879,3.0874,3.0873,3.088,3.0869,3.0868,3.0867,3.0866,3.0861,3.0862,3.0862,3.0873,3.0857,3.0857,3.0857,3.0857,3.0902,3.0902,0,0,0,0,0,0,3.0883,3.0882,3.0889,3.0889,3.0878,3.0875,3.0874,3.0876,3.0869,3.0868,3.0867,3.0865,3.0861,3.0861,3.0861,3.0884,3.0857,3.0857,3.0858,3.0901,3.0902,3.0903,0,0,0,0,0,0,3.0883,3.0884,3.0889,3.0885,3.0885,3.0876,3.0879,3.0877,3.0878,3.0869,3.0866,3.087,3.0861,3.0861,3.0871,3.0884,3.0858,3.0858,3.09,3.0901,3.0902,3.093,0,0,0,0,0,0,3.0883,3.0884,3.0891,3.0885,3.0886,3.0899,3.0879,3.0877,3.0879,3.0876,3.0871,3.0869,3.086,3.0871,3.0872,3.0884,3.0858,3.0898,3.09,3.0902,3.0927,3.0932,3.0935,0,0,0,0,0,3.0883,3.0898,3.0891,3.0892,3.0894,3.09,3.09,3.089,3.088,3.0887,3.0881,3.0869,3.0882,3.0872,3.0873,3.0885,3.0898,3.09,3.0902,3.0926,3.0931,3.0935,0,0,0,0,0,0,3.0904,3.0897,3.089,3.0903,3.0903,3.0896,3.0904,3.0895,3.0897,3.0895,3.0882,3.0881,3.0894,3.089,3.0879,3.0904,3.0888,3.089,3.0906,3.0911,3.0915,3.0915,3.0859,0,0,0,0,0,3.0911,3.0916,3.091,3.0922,3.0923,3.0914,3.0916,3.0909,3.0907,3.0906,3.0902,3.09,3.0904,3.0907,3.091,3.0927,3.0926,3.0936,3.094,3.0943,3.0945,3.0956,3.0961,3.0909,3.0909,3.0909,0,0,3.0923,3.092,3.0925,3.0927,3.0925,3.0932,3.0913,3.0921,3.0926,3.0907,3.0918,3.0914,3.0912,3.0927,3.0933,3.0924,3.096,3.0946,3.0948,3.0949,3.0959,3.0964,3.0968,3.0911,3.0911,3.091,0,0,3.0951,3.0949,3.096,3.096,3.0959,3.0953,3.0956,3.0951,3.0949,3.0959,3.0946,3.0952,3.0959,3.0959,3.0959,3.099,3.0979,3.0991,3.1011,3.1022,3.1026,3.103,3.1043,3.1047,3.0993,3.0993,3.0993,0,3.0967,3.0977,3.0967,3.0976,3.0979,3.0963,3.0976,3.0975,3.0975,3.0977,3.0967,3.0977,3.0974,3.099,3.0998,3.0998,3.1002,3.0992,3.1027,3.103,3.1033,3.1045,3.105,3.0995,3.0995,3.0994,3.0994,0,3.0999,3.1006,3.1015,3.1017,3.102,3.103,3.1022,3.1027,3.1019,3.1015,3.1027,3.1024,3.1027,3.103,3.1022,3.1045,3.104,3.1029,3.1012,3.104,3.1051,3.1055,3.0997,3.0996,3.0996,3.0996,0,0,3.1038,3.1036,3.104,3.1042,3.104,3.1045,3.1056,3.106,3.1065,3.1065,3.1075,3.1082,3.1073,3.1074,3.1066,3.1075,3.1102,3.1063,3.1063,3.1072,3.113,3.1139,3.1145,3.1095,3.1096,3.1097,3.113,0,3.1066,3.1085,3.1077,3.1096,3.1104,3.1091,3.11,3.1101,3.1097,3.1103,3.1099,3.1106,3.1091,3.1092,3.1101,3.1097,3.1114,3.1094,3.1105,3.1105,3.1107,3.115,3.116,3.1192,3.1134,3.1135,3.1136,0,3.1101,3.1105,3.1126,3.1125,3.1128,3.1137,3.1142,3.1147,3.1148,3.1145,3.1148,3.1138,3.1149,3.1133,3.1149,3.1136,3.114,3.1139,3.114,3.1141,3.1123,3.1154,3.1201,3.1207,3.1142,3.1142,3.1141,0,3.1131,3.1141,3.1155,3.1157,3.1156,3.1163,3.1163,3.1163,3.1167,3.1171,3.1173,3.1178,3.1181,3.1185,3.1178,3.1166,3.1195,3.1178,3.1194,3.1195,3.1202,3.1201,3.1252,3.1202,3.1202,3.1202,3.1202,0,3.1164,3.1177,3.1169,3.1178,3.1193,3.1185,3.12,3.1198,3.1199,3.1208,3.1196,3.1204,3.1194,3.1202,3.1196,3.1211,3.1212,3.1211,3.1209,3.1213,3.1213,3.1216,3.1214,3.1203,3.1203,3.1202,3.1202,0,3.1199,3.1194,3.121,3.1208,3.1208,3.122,3.1219,3.1228,3.1224,3.1236,3.1238,3.1232,3.1241,3.1234,3.1242,3.1239,3.126,3.1254,3.126,3.1259,3.1277,3.1276,3.1331,3.1339,3.1283,3.1283,3.1284,0,3.1221,3.1232,3.1233,3.1238,3.1239,3.1248,3.1253,3.1245,3.125,3.1253,3.1262,3.127,3.1276,3.1291,3.1287,3.1294,3.129,3.1309,3.1291,3.1295,3.1293,3.1293,3.1295,3.1313,3.1314,3.1314,3.1315,0,3.1262,3.1259,3.1266,3.1274,3.128,3.1285,3.1289,3.1294,3.1286,3.1293,3.1303,3.1308,3.1317,3.1326,3.1332,3.1332,3.1323,3.132,3.1325,3.1329,3.1333,3.1333,3.1272,3.1319,3.1319,3.1318,3.1318,3.1318,3.1292,3.1302,3.1305,3.1314,3.1317,3.1321,3.133,3.1329,3.1337,3.1345,3.1339,3.1351,3.1354,3.1361,3.1362,3.1372,3.1364,3.137,3.1372,3.1374,3.1378,3.133,3.1373,3.1373,3.1372,3.1372,3.1372,0,3.1334,3.1335,3.1344,3.1351,3.1359,3.135,3.1355,3.1362,3.1373,3.1376,3.1383,3.1395,3.1404,3.1402,3.1411,3.1419,3.1415,3.1421,3.1421,3.1422,3.1383,3.1379,3.1425,3.1425,3.1425,3.1425,3.1425,3.1425,3.1356,3.1373,3.1371,3.139,3.1391,3.1404,3.1408,3.1412,3.1415,3.143,3.1438,3.1437,3.1438,3.1447,3.1455,3.1455,3.1459,3.1468,3.1466,3.1429,3.1424,3.1419,3.1416,3.1468,3.1468,3.1504,3.1504,3.1505]}]]